LEMUR-2-HUBBLE-4 (64565 NORAD) Tracking and Keplerian Element Data

This shows tracking and keplerian element data for the satellite.

Feedback or suggestion? Click here.




ElementValue
Catalog64565
NameLEMUR-2-HUBBLE-4
Epoch Orbit2717
Epoch Day354.23951699
Epoch Year2025
RAAN105.6125
Inclination97.7572
Eccentricity0.0003279
Argument of Perigee138.6867
Mean Anonmoly221.4601
Mean Motion14.9214057
Decay Rate1.162E-05
L11 64565U 25135AP 25354.23951699 .00001162 00000+0 11976-3 0 9991
L22 64565 97.7572 105.6125 0003279 138.6867 221.4601 14.92140570 27171



Live tracking and technical data element details for LEMUR-2-HUBBLE-4 (NORAD 64565). LEMUR-2-HUBBLE-4 can be tracked NOW for your location showing map with azimuth and elevation plus other details from your city location.







IsCatalogInMostPopularTable: catalog: 64565, numindb: 4
Update: records affected: 1



GetName: 64565 LEMUR-2-HUBBLE-4

Hit Count: updated at: Sat, 11 Apr 2026 21:51:13 GMT